Time,TemperatureF,DewpointF,PressureIn,WindDirection,WindDirectionDegrees,WindSpeedMPH,WindSpeedGustMPH,Humidity,HourlyPrecipIn,Conditions,Clouds,dailyrainin,SoftwareType,DateUTC
2013-08-30 00:00:00,78.0,55.0,30.06,WSW,257,7.0,13.0,45,0.00,,---,0.00,VWS V14.01,2013-08-30 07:00:00,
2013-08-30 00:01:00,77.9,54.9,30.06,West,259,13.0,13.0,45,0.00,,---,0.00,VWS V14.01,2013-08-30 07:01:00,
2013-08-30 00:06:00,77.8,54.8,30.06,West,266,2.0,13.0,45,0.00,,---,0.00,VWS V14.01,2013-08-30 07:06:00,
2013-08-30 00:11:00,77.7,55.3,30.05,SW,224,6.0,15.0,46,0.00,,---,0.00,VWS V14.01,2013-08-30 07:11:00,
2013-08-30 00:16:00,77.7,55.3,30.06,WNW,285,7.0,15.0,46,0.00,,---,0.00,VWS V14.01,2013-08-30 07:16:00,
2013-08-30 00:21:00,77.6,55.2,30.06,WNW,287,3.0,15.0,46,0.00,,---,0.00,VWS V14.01,2013-08-30 07:21:00,
2013-08-30 00:26:00,77.4,55.0,30.06,SW,235,8.0,15.0,46,0.00,,---,0.00,VWS V14.01,2013-08-30 07:26:00,
2013-08-30 00:30:00,77.4,55.0,30.06,WSW,243,10.0,15.0,46,0.00,,---,0.00,VWS V14.01,2013-08-30 07:30:00,
2013-08-30 00:31:00,77.4,55.6,30.06,WSW,250,4.0,10.0,47,0.00,,---,0.00,VWS V14.01,2013-08-30 07:31:00,
2013-08-30 00:36:00,77.4,55.0,30.06,West,274,5.0,12.0,46,0.00,,---,0.00,VWS V14.01,2013-08-30 07:36:00,
2013-08-30 00:41:00,77.4,55.6,30.06,West,280,8.0,15.0,47,0.00,,---,0.00,VWS V14.01,2013-08-30 07:41:00,
2013-08-30 00:46:00,77.3,55.5,30.06,WSW,252,5.0,15.0,47,0.00,,---,0.00,VWS V14.01,2013-08-30 07:46:00,
2013-08-30 00:51:00,77.2,56.0,30.06,WNW,293,7.0,15.0,48,0.00,,---,0.00,VWS V14.01,2013-08-30 07:51:00,
2013-08-30 00:56:00,77.2,56.0,30.06,WNW,283,7.0,15.0,48,0.00,,---,0.00,VWS V14.01,2013-08-30 07:56:00,
2013-08-30 01:00:00,77.2,56.0,30.06,West,274,8.0,17.0,48,0.00,,---,0.00,VWS V14.01,2013-08-30 08:00:00,
2013-08-30 01:01:00,77.1,55.9,30.05,WNW,296,8.0,13.0,48,0.00,,---,0.00,VWS V14.01,2013-08-30 08:01:00,
2013-08-30 01:06:00,77.0,56.4,30.05,West,274,5.0,13.0,49,0.00,,---,0.00,VWS V14.01,2013-08-30 08:06:00,
2013-08-30 01:11:00,76.9,56.3,30.05,West,277,8.0,13.0,49,0.00,,---,0.00,VWS V14.01,2013-08-30 08:11:00,
2013-08-30 01:16:00,76.7,56.1,30.05,West,266,8.0,15.0,49,0.00,,---,0.00,VWS V14.01,2013-08-30 08:16:00,
2013-08-30 01:21:00,76.7,56.1,30.05,WSW,239,7.0,15.0,49,0.00,,---,0.00,VWS V14.01,2013-08-30 08:21:00,
2013-08-30 01:26:00,76.6,56.0,30.05,WSW,248,6.0,15.0,49,0.00,,---,0.00,VWS V14.01,2013-08-30 08:26:00,
2013-08-30 01:30:00,76.5,55.9,30.05,South,184,6.0,15.0,49,0.00,,---,0.00,VWS V14.01,2013-08-30 08:30:00,
2013-08-30 01:31:00,76.5,55.9,30.05,WNW,289,8.0,12.0,49,0.00,,---,0.00,VWS V14.01,2013-08-30 08:31:00,
2013-08-30 01:35:00,76.2,55.7,30.05,West,264,2.0,12.0,49,0.00,,---,0.00,VWS V14.01,2013-08-30 08:35:00,
2013-08-30 01:40:00,76.0,56.0,30.05,West,269,4.0,12.0,50,0.00,,---,0.00,VWS V14.01,2013-08-30 08:40:00,
2013-08-30 01:45:00,75.7,55.8,30.05,West,278,8.0,12.0,50,0.00,,---,0.00,VWS V14.01,2013-08-30 08:45:00,
2013-08-30 01:50:00,75.4,56.0,30.05,West,262,4.0,12.0,51,0.00,,---,0.00,VWS V14.01,2013-08-30 08:50:00,
2013-08-30 01:55:00,75.2,55.8,30.05,WSW,238,5.0,12.0,51,0.00,,---,0.00,VWS V14.01,2013-08-30 08:55:00,
2013-08-30 02:00:00,74.9,56.1,30.05,WNW,283,5.0,9.0,52,0.00,,---,0.00,VWS V14.01,2013-08-30 09:00:00,
2013-08-30 02:05:00,74.6,56.9,30.05,West,264,8.0,10.0,54,0.00,,---,0.00,VWS V14.01,2013-08-30 09:05:00,
2013-08-30 02:10:00,74.3,56.6,30.05,West,260,3.0,12.0,54,0.00,,---,0.00,VWS V14.01,2013-08-30 09:10:00,
2013-08-30 02:15:00,74.0,56.8,30.05,WSW,246,4.0,13.0,55,0.00,,---,0.00,VWS V14.01,2013-08-30 09:15:00,
2013-08-30 02:20:00,73.9,56.7,30.05,West,266,6.0,13.0,55,0.00,,---,0.00,VWS V14.01,2013-08-30 09:20:00,
2013-08-30 02:25:00,74.1,56.9,30.05,West,259,9.0,13.0,55,0.00,,---,0.00,VWS V14.01,2013-08-30 09:25:00,
2013-08-30 02:30:00,74.1,56.9,30.05,WSW,245,7.0,12.0,55,0.00,,---,0.00,VWS V14.01,2013-08-30 09:30:00,
2013-08-30 02:35:00,74.2,57.0,30.05,SW,222,7.0,12.0,55,0.00,,---,0.00,VWS V14.01,2013-08-30 09:35:00,
2013-08-30 02:40:00,74.1,56.9,30.05,WSW,245,6.0,13.0,55,0.00,,---,0.00,VWS V14.01,2013-08-30 09:40:00,
2013-08-30 02:45:00,73.8,56.6,30.05,SW,217,8.0,13.0,55,0.00,,---,0.00,VWS V14.01,2013-08-30 09:45:00,
2013-08-30 02:50:00,74.0,56.3,30.05,WNW,284,6.0,13.0,54,0.00,,---,0.00,VWS V14.01,2013-08-30 09:50:00,
2013-08-30 02:55:00,74.2,56.5,30.05,SW,225,8.0,13.0,54,0.00,,---,0.00,VWS V14.01,2013-08-30 09:55:00,
2013-08-30 03:00:00,74.0,56.3,30.05,WNW,284,4.0,14.0,54,0.00,,---,0.00,VWS V14.01,2013-08-30 10:00:00,
2013-08-30 03:05:00,74.0,56.3,30.06,West,267,4.0,14.0,54,0.00,,---,0.00,VWS V14.01,2013-08-30 10:05:00,
2013-08-30 03:10:00,73.9,56.2,30.05,WNW,289,3.0,14.0,54,0.00,,---,0.00,VWS V14.01,2013-08-30 10:10:00,
2013-08-30 03:15:00,73.8,56.1,30.05,WSW,257,3.0,14.0,54,0.00,,---,0.00,VWS V14.01,2013-08-30 10:15:00,
2013-08-30 03:20:00,73.9,56.2,30.05,WSW,257,5.0,14.0,54,0.00,,---,0.00,VWS V14.01,2013-08-30 10:20:00,
2013-08-30 03:25:00,73.7,56.0,30.05,WSW,243,7.0,14.0,54,0.00,,---,0.00,VWS V14.01,2013-08-30 10:25:00,
2013-08-30 03:30:00,73.5,55.9,30.05,West,273,5.0,7.0,54,0.00,,---,0.00,VWS V14.01,2013-08-30 10:30:00,
2013-08-30 03:35:00,73.3,55.7,30.05,SSW,208,3.0,7.0,54,0.00,,---,0.00,VWS V14.01,2013-08-30 10:35:00,
2013-08-30 03:40:00,73.2,55.6,30.05,West,266,4.0,7.0,54,0.00,,---,0.00,VWS V14.01,2013-08-30 10:40:00,
2013-08-30 03:45:00,73.1,55.5,30.05,West,261,2.0,10.0,54,0.00,,---,0.00,VWS V14.01,2013-08-30 10:45:00,
2013-08-30 03:50:00,72.8,55.7,30.05,SW,231,3.0,10.0,55,0.00,,---,0.00,VWS V14.01,2013-08-30 10:50:00,
2013-08-30 03:55:00,72.8,55.7,30.05,WSW,245,6.0,10.0,55,0.00,,---,0.00,VWS V14.01,2013-08-30 10:55:00,
2013-08-30 04:00:00,72.6,55.5,30.05,West,259,3.0,6.0,55,0.00,,---,0.00,VWS V14.01,2013-08-30 11:00:00,
2013-08-30 04:05:00,72.3,55.2,30.05,WSW,249,2.0,6.0,55,0.00,,---,0.00,VWS V14.01,2013-08-30 11:05:00,
2013-08-30 04:10:00,72.1,55.1,30.05,West,260,2.0,6.0,55,0.00,,---,0.00,VWS V14.01,2013-08-30 11:10:00,
2013-08-30 04:15:00,72.0,55.0,30.05,WSW,248,3.0,6.0,55,0.00,,---,0.00,VWS V14.01,2013-08-30 11:15:00,
2013-08-30 04:20:00,71.9,54.9,30.05,West,273,2.0,6.0,55,0.00,,---,0.00,VWS V14.01,2013-08-30 11:20:00,
2013-08-30 04:25:00,71.8,54.8,30.05,WSW,238,3.0,6.0,55,0.00,,---,0.00,VWS V14.01,2013-08-30 11:25:00,
2013-08-30 04:30:00,71.8,54.8,30.05,West,266,3.0,5.0,55,0.00,,---,0.00,VWS V14.01,2013-08-30 11:30:00,
2013-08-30 04:35:00,71.9,54.9,30.04,WNW,296,4.0,8.0,55,0.00,,---,0.00,VWS V14.01,2013-08-30 11:35:00,
2013-08-30 04:40:00,71.9,54.9,30.04,West,267,4.0,8.0,55,0.00,,---,0.00,VWS V14.01,2013-08-30 11:40:00,
2013-08-30 04:45:00,71.8,54.8,30.04,WSW,242,3.0,8.0,55,0.00,,---,0.00,VWS V14.01,2013-08-30 11:45:00,
2013-08-30 04:50:00,71.7,55.2,30.05,WSW,257,2.0,8.0,56,0.00,,---,0.00,VWS V14.01,2013-08-30 11:50:00,
2013-08-30 04:55:00,71.6,54.6,30.05,WSW,243,2.0,8.0,55,0.00,,---,0.00,VWS V14.01,2013-08-30 11:55:00,
2013-08-30 05:00:00,71.4,54.4,30.05,SW,229,2.0,4.0,55,0.00,,---,0.00,VWS V14.01,2013-08-30 12:00:00,
2013-08-30 05:05:00,71.2,54.2,30.05,WSW,239,2.0,5.0,55,0.00,,---,0.00,VWS V14.01,2013-08-30 12:05:00,
2013-08-30 05:10:00,71.1,54.6,30.05,West,266,1.0,5.0,56,0.00,,---,0.00,VWS V14.01,2013-08-30 12:10:00,
2013-08-30 05:15:00,71.0,54.5,30.05,WSW,239,2.0,5.0,56,0.00,,---,0.00,VWS V14.01,2013-08-30 12:15:00,
2013-08-30 05:20:00,71.1,54.6,30.05,WSW,257,2.0,5.0,56,0.00,,---,0.00,VWS V14.01,2013-08-30 12:20:00,
2013-08-30 05:25:00,71.2,54.7,30.05,West,259,1.0,5.0,56,0.00,,---,0.00,VWS V14.01,2013-08-30 12:25:00,
2013-08-30 05:30:00,71.2,54.7,30.05,West,263,2.0,5.0,56,0.00,,---,0.00,VWS V14.01,2013-08-30 12:30:00,
2013-08-30 05:35:00,71.2,54.7,30.05,WSW,252,1.0,5.0,56,0.00,,---,0.00,VWS V14.01,2013-08-30 12:35:00,
2013-08-30 05:40:00,71.3,54.3,30.05,West,259,2.0,5.0,55,0.00,,---,0.00,VWS V14.01,2013-08-30 12:40:00,
2013-08-30 05:45:00,71.5,54.5,30.05,West,264,3.0,6.0,55,0.00,,---,0.00,VWS V14.01,2013-08-30 12:45:00,
2013-08-30 05:50:00,71.6,54.6,30.05,West,270,4.0,7.0,55,0.00,,---,0.00,VWS V14.01,2013-08-30 12:50:00,
2013-08-30 05:55:00,71.6,54.6,30.06,WSW,237,3.0,7.0,55,0.00,,---,0.00,VWS V14.01,2013-08-30 12:55:00,
2013-08-30 06:00:00,71.6,54.6,30.06,West,262,1.0,5.0,55,0.00,,---,0.00,VWS V14.01,2013-08-30 13:00:00,
2013-08-30 06:05:00,71.6,54.6,30.06,West,271,3.0,6.0,55,0.00,,---,0.00,VWS V14.01,2013-08-30 13:05:00,
2013-08-30 06:10:00,71.6,54.6,30.06,WSW,239,0.0,6.0,55,0.00,,---,0.00,VWS V14.01,2013-08-30 13:10:00,
2013-08-30 06:15:00,71.6,54.6,30.06,WSW,248,1.0,6.0,55,0.00,,---,0.00,VWS V14.01,2013-08-30 13:15:00,
2013-08-30 06:20:00,71.7,54.7,30.06,West,260,2.0,6.0,55,0.00,,---,0.00,VWS V14.01,2013-08-30 13:20:00,
2013-08-30 06:25:00,71.8,54.8,30.07,West,280,2.0,6.0,55,0.00,,---,0.00,VWS V14.01,2013-08-30 13:25:00,
2013-08-30 06:30:00,71.8,54.8,30.06,West,266,2.0,6.0,55,0.00,,---,0.00,VWS V14.01,2013-08-30 13:30:00,
2013-08-30 07:00:00,72.8,55.2,30.07,WNW,288,2.0,6.0,54,0.00,,---,0.00,VWS V14.01,2013-08-30 14:00:00,
2013-08-30 07:30:00,75.1,56.3,30.08,WSW,255,1.0,6.0,52,0.00,,---,0.00,VWS V14.01,2013-08-30 14:30:00,
2013-08-30 08:00:00,78.5,56.0,30.08,West,263,1.0,6.0,46,0.00,,---,0.00,VWS V14.01,2013-08-30 15:00:00,
2013-08-30 08:29:00,82.8,56.0,30.08,West,269,0.0,1.0,40,0.00,,---,0.00,VWS V14.01,2013-08-30 15:29:00,
2013-08-30 08:30:00,82.5,56.5,30.08,West,266,0.0,4.0,41,0.00,,---,0.00,VWS V14.01,2013-08-30 15:30:00,
2013-08-30 08:34:00,83.4,55.9,30.08,WSW,249,2.0,3.0,39,0.00,,---,0.00,VWS V14.01,2013-08-30 15:34:00,
2013-08-30 08:39:00,83.7,56.1,30.08,WSW,242,0.0,4.0,39,0.00,,---,0.00,VWS V14.01,2013-08-30 15:39:00,
2013-08-30 08:44:00,84.1,55.0,30.08,NW,315,2.0,4.0,37,0.00,,---,0.00,VWS V14.01,2013-08-30 15:44:00,
2013-08-30 08:49:00,84.5,54.6,30.08,WNW,291,1.0,6.0,36,0.00,,---,0.00,VWS V14.01,2013-08-30 15:49:00,
2013-08-30 08:54:00,85.0,54.3,30.08,WNW,294,3.0,6.0,35,0.00,,---,0.00,VWS V14.01,2013-08-30 15:54:00,
2013-08-30 08:59:00,85.5,54.8,30.08,SW,235,1.0,5.0,35,0.00,,---,0.00,VWS V14.01,2013-08-30 15:59:00,
2013-08-30 09:00:00,85.3,55.3,30.08,WNW,287,5.0,7.0,36,0.00,,---,0.00,VWS V14.01,2013-08-30 16:00:00,
2013-08-30 09:04:00,85.7,54.1,30.08,WNW,290,3.0,6.0,34,0.00,,---,0.00,VWS V14.01,2013-08-30 16:04:00,
2013-08-30 09:09:00,85.9,54.3,30.08,WNW,302,3.0,6.0,34,0.00,,---,0.00,VWS V14.01,2013-08-30 16:09:00,
2013-08-30 09:14:00,86.0,53.6,30.08,NW,308,2.0,6.0,33,0.00,,---,0.00,VWS V14.01,2013-08-30 16:14:00,
2013-08-30 09:19:00,86.6,54.1,30.08,WNW,287,2.0,6.0,33,0.00,,---,0.00,VWS V14.01,2013-08-30 16:19:00,
2013-08-30 09:24:00,87.2,53.8,30.08,NNW,336,2.0,6.0,32,0.00,,---,0.00,VWS V14.01,2013-08-30 16:24:00,
2013-08-30 09:29:00,87.9,54.4,30.08,WNW,284,2.0,3.0,32,0.00,,---,0.00,VWS V14.01,2013-08-30 16:29:00,
2013-08-30 09:30:00,87.4,54.0,30.08,SSW,213,1.0,6.0,32,0.00,,---,0.00,VWS V14.01,2013-08-30 16:30:00,
2013-08-30 09:34:00,88.4,53.1,30.08,SSW,204,1.0,4.0,30,0.00,,---,0.00,VWS V14.01,2013-08-30 16:34:00,
2013-08-30 09:39:00,88.7,53.3,30.08,WNW,283,2.0,4.0,30,0.00,,---,0.00,VWS V14.01,2013-08-30 16:39:00,
2013-08-30 09:44:00,88.8,53.4,30.09,NNW,337,3.0,4.0,30,0.00,,---,0.00,VWS V14.01,2013-08-30 16:44:00,
2013-08-30 09:49:00,88.9,53.5,30.09,North,356,0.0,4.0,30,0.00,,---,0.00,VWS V14.01,2013-08-30 16:49:00,
2013-08-30 09:54:00,89.1,52.7,30.08,NNW,328,1.0,4.0,29,0.00,,---,0.00,VWS V14.01,2013-08-30 16:54:00,
2013-08-30 09:59:00,89.6,53.2,30.08,WNW,291,1.0,1.0,29,0.00,,---,0.00,VWS V14.01,2013-08-30 16:59:00,
2013-08-30 10:00:00,89.4,53.0,30.08,WNW,287,0.0,4.0,29,0.00,,---,0.00,VWS V14.01,2013-08-30 17:00:00,
2013-08-30 10:04:00,89.7,53.2,30.08,NW,316,1.0,6.0,29,0.00,,---,0.00,VWS V14.01,2013-08-30 17:04:00,
2013-08-30 10:09:00,90.0,53.5,30.08,ESE,122,0.0,6.0,29,0.00,,---,0.00,VWS V14.01,2013-08-30 17:09:00,
2013-08-30 10:14:00,90.7,53.2,30.08,NW,317,0.0,6.0,28,0.00,,---,0.00,VWS V14.01,2013-08-30 17:14:00,
2013-08-30 10:19:00,90.9,53.3,30.08,NW,318,0.0,7.0,28,0.00,,---,0.00,VWS V14.01,2013-08-30 17:19:00,
2013-08-30 10:24:00,91.3,53.7,30.08,North,352,2.0,7.0,28,0.00,,---,0.00,VWS V14.01,2013-08-30 17:24:00,
2013-08-30 10:29:00,91.1,53.5,30.08,ENE,57,4.0,4.0,28,0.00,,---,0.00,VWS V14.01,2013-08-30 17:29:00,
2013-08-30 10:30:00,91.3,53.7,30.08,NW,308,2.0,7.0,28,0.00,,---,0.00,VWS V14.01,2013-08-30 17:30:00,
2013-08-30 10:34:00,91.2,53.6,30.08,ENE,71,3.0,7.0,28,0.00,,---,0.00,VWS V14.01,2013-08-30 17:34:00,
2013-08-30 10:39:00,91.2,53.6,30.08,SSE,148,1.0,7.0,28,0.00,,---,0.00,VWS V14.01,2013-08-30 17:39:00,
2013-08-30 10:44:00,91.8,53.1,30.08,ENE,60,3.0,8.0,27,0.00,,---,0.00,VWS V14.01,2013-08-30 17:44:00,
2013-08-30 10:49:00,91.7,54.0,30.08,NNW,345,2.0,8.0,28,0.00,,---,0.00,VWS V14.01,2013-08-30 17:49:00,
2013-08-30 10:54:00,91.9,54.2,30.08,East,81,3.0,8.0,28,0.00,,---,0.00,VWS V14.01,2013-08-30 17:54:00,
2013-08-30 10:59:00,92.1,53.3,30.07,SSE,152,4.0,5.0,27,0.00,,---,0.00,VWS V14.01,2013-08-30 17:59:00,
2013-08-30 11:00:00,92.0,53.3,30.08,SE,131,3.0,8.0,27,0.00,,---,0.00,VWS V14.01,2013-08-30 18:00:00,
2013-08-30 11:04:00,91.6,53.9,30.08,SSE,154,4.0,10.0,28,0.00,,---,0.00,VWS V14.01,2013-08-30 18:04:00,
2013-08-30 11:09:00,92.0,54.3,30.08,SE,144,4.0,10.0,28,0.00,,---,0.00,VWS V14.01,2013-08-30 18:09:00,
2013-08-30 11:14:00,92.0,54.3,30.08,ESE,105,1.0,10.0,28,0.00,,---,0.00,VWS V14.01,2013-08-30 18:14:00,
2013-08-30 11:19:00,92.3,54.5,30.08,SSE,148,1.0,10.0,28,0.00,,---,0.00,VWS V14.01,2013-08-30 18:19:00,
2013-08-30 11:24:00,92.6,53.8,30.08,SSE,150,0.0,10.0,27,0.00,,---,0.00,VWS V14.01,2013-08-30 18:24:00,
2013-08-30 11:29:00,92.8,53.9,30.08,East,96,4.0,5.0,27,0.00,,---,0.00,VWS V14.01,2013-08-30 18:29:00,
2013-08-30 11:30:00,92.9,54.0,30.08,ENE,70,4.0,10.0,27,0.00,,---,0.00,VWS V14.01,2013-08-30 18:30:00,
2013-08-30 11:34:00,92.7,53.9,30.08,NE,34,4.0,9.0,27,0.00,,---,0.00,VWS V14.01,2013-08-30 18:34:00,
2013-08-30 11:39:00,93.0,54.1,30.07,ESE,105,6.0,9.0,27,0.00,,---,0.00,VWS V14.01,2013-08-30 18:39:00,
2013-08-30 11:44:00,93.2,54.3,30.08,East,98,5.0,9.0,27,0.00,,---,0.00,VWS V14.01,2013-08-30 18:44:00,
2013-08-30 11:49:00,92.9,54.0,30.08,ENE,65,4.0,9.0,27,0.00,,---,0.00,VWS V14.01,2013-08-30 18:49:00,
2013-08-30 11:54:00,92.8,54.9,30.08,NE,53,5.0,9.0,28,0.00,,---,0.00,VWS V14.01,2013-08-30 18:54:00,
2013-08-30 11:59:00,92.7,55.8,30.07,East,99,3.0,4.0,29,0.00,,---,0.00,VWS V14.01,2013-08-30 18:59:00,
2013-08-30 12:00:00,92.7,55.8,30.07,NW,309,3.0,9.0,29,0.00,,---,0.00,VWS V14.01,2013-08-30 19:00:00,
2013-08-30 12:04:00,93.2,56.2,30.07,NNE,12,8.0,10.0,29,0.00,,---,0.00,VWS V14.01,2013-08-30 19:04:00,
2013-08-30 12:09:00,92.8,55.9,30.07,East,89,0.0,10.0,29,0.00,,---,0.00,VWS V14.01,2013-08-30 19:09:00,
2013-08-30 12:14:00,93.8,56.8,30.06,North,350,2.0,10.0,29,0.00,,---,0.00,VWS V14.01,2013-08-30 19:14:00,
2013-08-30 12:19:00,93.6,56.6,30.06,NNW,330,5.0,10.0,29,0.00,,---,0.00,VWS V14.01,2013-08-30 19:19:00,
2013-08-30 12:24:00,93.4,57.4,30.06,North,4,4.0,10.0,30,0.00,,---,0.00,VWS V14.01,2013-08-30 19:24:00,
2013-08-30 12:29:00,93.9,56.8,30.05,NNE,16,7.0,11.0,29,0.00,,---,0.00,VWS V14.01,2013-08-30 19:29:00,
2013-08-30 12:30:00,93.7,56.7,30.06,NE,41,5.0,10.0,29,0.00,,---,0.00,VWS V14.01,2013-08-30 19:30:00,
2013-08-30 12:34:00,93.7,57.6,30.05,ENE,57,0.0,11.0,30,0.00,,---,0.00,VWS V14.01,2013-08-30 19:34:00,
2013-08-30 12:39:00,94.3,57.2,30.05,North,9,3.0,11.0,29,0.00,,---,0.00,VWS V14.01,2013-08-30 19:39:00,
2013-08-30 12:44:00,94.5,57.4,30.05,ENE,77,8.0,13.0,29,0.00,,---,0.00,VWS V14.01,2013-08-30 19:44:00,
2013-08-30 12:49:00,94.2,57.1,30.05,NNE,16,5.0,13.0,29,0.00,,---,0.00,VWS V14.01,2013-08-30 19:49:00,
2013-08-30 12:54:00,94.3,57.2,30.04,NNE,32,4.0,13.0,29,0.00,,---,0.00,VWS V14.01,2013-08-30 19:54:00,
2013-08-30 12:59:00,94.7,57.5,30.04,NE,41,3.0,7.0,29,0.00,,---,0.00,VWS V14.01,2013-08-30 19:59:00,
2013-08-30 13:00:00,94.3,57.2,30.04,SE,128,4.0,13.0,29,0.00,,---,0.00,VWS V14.01,2013-08-30 20:00:00,
2013-08-30 13:04:00,94.9,56.7,30.03,NNE,19,6.0,8.0,28,0.00,,---,0.00,VWS V14.01,2013-08-30 20:04:00,
2013-08-30 13:09:00,95.2,57.0,30.03,NE,40,6.0,10.0,28,0.00,,---,0.00,VWS V14.01,2013-08-30 20:09:00,
2013-08-30 13:14:00,94.1,57.0,30.03,ENE,71,1.0,11.0,29,0.00,,---,0.00,VWS V14.01,2013-08-30 20:14:00,
2013-08-30 13:19:00,94.6,57.5,30.03,SE,139,2.0,11.0,29,0.00,,---,0.00,VWS V14.01,2013-08-30 20:19:00,
2013-08-30 13:24:00,94.9,57.7,30.03,ENE,78,3.0,14.0,29,0.00,,---,0.00,VWS V14.01,2013-08-30 20:24:00,
2013-08-30 13:29:00,95.4,57.2,30.03,ESE,105,6.0,7.0,28,0.00,,---,0.00,VWS V14.01,2013-08-30 20:29:00,
2013-08-30 13:30:00,95.4,57.2,30.03,NE,56,4.0,17.0,28,0.00,,---,0.00,VWS V14.01,2013-08-30 20:30:00,
2013-08-30 13:34:00,95.7,57.4,30.03,ENE,65,5.0,7.0,28,0.00,,---,0.00,VWS V14.01,2013-08-30 20:34:00,
2013-08-30 13:39:00,95.5,57.2,30.02,NNE,16,3.0,10.0,28,0.00,,---,0.00,VWS V14.01,2013-08-30 20:39:00,
2013-08-30 13:44:00,96.0,57.7,30.02,NE,46,2.0,10.0,28,0.00,,---,0.00,VWS V14.01,2013-08-30 20:44:00,
2013-08-30 13:49:00,96.9,57.4,30.02,NE,47,5.0,14.0,27,0.00,,---,0.00,VWS V14.01,2013-08-30 20:49:00,
2013-08-30 13:54:00,96.2,56.8,30.02,NE,44,3.0,14.0,27,0.00,,---,0.00,VWS V14.01,2013-08-30 20:54:00,
2013-08-30 13:59:00,95.8,57.5,30.01,NE,39,9.0,10.0,28,0.00,,---,0.00,VWS V14.01,2013-08-30 20:59:00,
2013-08-30 14:00:00,95.8,57.5,30.02,ENE,78,2.0,14.0,28,0.00,,---,0.00,VWS V14.01,2013-08-30 21:00:00,
2013-08-30 14:04:00,95.4,57.2,30.01,NNE,25,11.0,12.0,28,0.00,,---,0.00,VWS V14.01,2013-08-30 21:04:00,
2013-08-30 14:09:00,94.3,57.2,30.01,NNE,30,4.0,12.0,29,0.00,,---,0.00,VWS V14.01,2013-08-30 21:09:00,
2013-08-30 14:14:00,94.0,57.9,30.01,NE,34,4.0,12.0,30,0.00,,---,0.00,VWS V14.01,2013-08-30 21:14:00,
2013-08-30 14:19:00,95.2,58.0,30.00,ENE,60,3.0,12.0,29,0.00,,---,0.00,VWS V14.01,2013-08-30 21:19:00,
2013-08-30 14:24:00,95.6,57.3,30.00,North,8,5.0,12.0,28,0.00,,---,0.00,VWS V14.01,2013-08-30 21:24:00,
2013-08-30 14:29:00,96.1,57.8,30.00,NE,48,11.0,12.0,28,0.00,,---,0.00,VWS V14.01,2013-08-30 21:29:00,
2013-08-30 14:30:00,96.1,57.8,30.00,NNE,27,3.0,12.0,28,0.00,,---,0.00,VWS V14.01,2013-08-30 21:30:00,
2013-08-30 14:34:00,96.2,58.8,30.00,NW,321,2.0,13.0,29,0.00,,---,0.00,VWS V14.01,2013-08-30 21:34:00,
2013-08-30 14:39:00,96.8,58.3,30.00,NE,36,4.0,13.0,28,0.00,,---,0.00,VWS V14.01,2013-08-30 21:39:00,
2013-08-30 14:44:00,96.0,58.7,29.99,West,277,3.0,13.0,29,0.00,,---,0.00,VWS V14.01,2013-08-30 21:44:00,
2013-08-30 14:49:00,96.5,60.0,29.99,SSW,208,5.0,13.0,30,0.00,,---,0.00,VWS V14.01,2013-08-30 21:49:00,
2013-08-30 14:54:00,97.2,59.7,29.99,SSE,155,5.0,14.0,29,0.00,,---,0.00,VWS V14.01,2013-08-30 21:54:00,
2013-08-30 14:59:00,97.0,60.5,29.99,SW,228,10.0,13.0,30,0.00,,---,0.00,VWS V14.01,2013-08-30 21:59:00,
2013-08-30 15:00:00,97.0,60.5,29.99,SSW,193,8.0,14.0,30,0.00,,---,0.00,VWS V14.01,2013-08-30 22:00:00,
2013-08-30 15:04:00,97.1,60.5,29.99,South,174,9.0,13.0,30,0.00,,---,0.00,VWS V14.01,2013-08-30 22:04:00,
2013-08-30 15:09:00,97.1,60.5,29.99,SW,224,6.0,13.0,30,0.00,,---,0.00,VWS V14.01,2013-08-30 22:09:00,
2013-08-30 15:14:00,95.9,60.4,29.98,SSW,213,2.0,13.0,31,0.00,,---,0.00,VWS V14.01,2013-08-30 22:14:00,
2013-08-30 15:19:00,95.0,60.5,29.99,SSW,208,6.0,13.0,32,0.00,,---,0.00,VWS V14.01,2013-08-30 22:19:00,
2013-08-30 15:24:00,94.3,60.8,29.98,SSW,210,5.0,13.0,33,0.00,,---,0.00,VWS V14.01,2013-08-30 22:24:00,
2013-08-30 15:29:00,94.0,61.4,29.98,SE,137,9.0,13.0,34,0.00,,---,0.00,VWS V14.01,2013-08-30 22:29:00,
2013-08-30 15:30:00,94.0,61.4,29.98,SSW,201,1.0,15.0,34,0.00,,---,0.00,VWS V14.01,2013-08-30 22:30:00,
2013-08-30 15:34:00,93.5,61.0,29.99,West,270,1.0,17.0,34,0.00,,---,0.00,VWS V14.01,2013-08-30 22:34:00,
2013-08-30 15:39:00,93.5,57.5,29.99,West,264,8.0,17.0,30,0.00,,---,0.00,VWS V14.01,2013-08-30 22:39:00,
2013-08-30 15:44:00,93.4,57.4,29.99,WNW,297,3.0,17.0,30,0.00,,---,0.00,VWS V14.01,2013-08-30 22:44:00,
2013-08-30 15:49:00,94.2,62.4,29.99,SE,139,2.0,17.0,35,0.00,,---,0.00,VWS V14.01,2013-08-30 22:49:00,
2013-08-30 15:54:00,94.5,58.3,29.99,WSW,240,3.0,17.0,30,0.00,,---,0.00,VWS V14.01,2013-08-30 22:54:00,
2013-08-30 15:59:00,94.9,60.5,29.99,West,273,7.0,9.0,32,0.00,,---,0.00,VWS V14.01,2013-08-30 22:59:00,
2013-08-30 16:00:00,94.9,60.5,29.99,West,259,8.0,17.0,32,0.00,,---,0.00,VWS V14.01,2013-08-30 23:00:00,
2013-08-30 16:04:00,93.4,63.3,29.99,South,188,3.0,13.0,37,0.00,,---,0.00,VWS V14.01,2013-08-30 23:04:00,
2013-08-30 16:09:00,92.6,63.3,29.99,SW,228,5.0,13.0,38,0.00,,---,0.00,VWS V14.01,2013-08-30 23:09:00,
2013-08-30 16:14:00,92.0,63.5,29.98,SSW,212,11.0,13.0,39,0.00,,---,0.00,VWS V14.01,2013-08-30 23:14:00,
2013-08-30 16:19:00,92.6,60.2,29.99,SW,217,0.0,15.0,34,0.00,,---,0.00,VWS V14.01,2013-08-30 23:19:00,
2013-08-30 16:24:00,93.4,59.2,29.98,SW,215,2.0,15.0,32,0.00,,---,0.00,VWS V14.01,2013-08-30 23:24:00,
2013-08-30 16:29:00,93.6,59.3,29.99,West,271,6.0,8.0,32,0.00,,---,0.00,VWS V14.01,2013-08-30 23:29:00,
2013-08-30 16:30:00,93.6,60.2,29.98,SW,215,5.0,15.0,33,0.00,,---,0.00,VWS V14.01,2013-08-30 23:30:00,
2013-08-30 16:34:00,93.4,61.7,29.97,West,259,14.0,14.0,35,0.00,,---,0.00,VWS V14.01,2013-08-30 23:34:00,
2013-08-30 16:39:00,93.6,59.3,29.99,NW,312,3.0,14.0,32,0.00,,---,0.00,VWS V14.01,2013-08-30 23:39:00,
2013-08-30 16:44:00,93.6,58.4,29.99,SW,228,4.0,14.0,31,0.00,,---,0.00,VWS V14.01,2013-08-30 23:44:00,
2013-08-30 16:49:00,92.9,59.6,29.98,SSE,167,6.0,14.0,33,0.00,,---,0.00,VWS V14.01,2013-08-30 23:49:00,
2013-08-30 16:54:00,93.2,59.8,29.98,NW,321,4.0,14.0,33,0.00,,---,0.00,VWS V14.01,2013-08-30 23:54:00,
2013-08-30 16:59:00,93.4,63.3,29.98,West,277,3.0,4.0,37,0.00,,---,0.00,VWS V14.01,2013-08-30 23:59:00,
2013-08-30 17:00:00,93.3,63.2,29.98,WSW,245,1.0,14.0,37,0.00,,---,0.00,VWS V14.01,2013-08-31 00:00:00,
2013-08-30 17:04:00,93.4,63.3,29.98,WNW,287,0.0,8.0,37,0.00,,---,0.00,VWS V14.01,2013-08-31 00:04:00,
2013-08-30 17:09:00,93.0,63.7,29.98,SSW,198,4.0,16.0,38,0.00,,---,0.00,VWS V14.01,2013-08-31 00:09:00,
2013-08-30 17:14:00,93.0,61.3,29.98,WSW,246,2.0,16.0,35,0.00,,---,0.00,VWS V14.01,2013-08-31 00:14:00,
2013-08-30 17:19:00,92.3,63.8,29.98,WNW,286,3.0,16.0,39,0.00,,---,0.00,VWS V14.01,2013-08-31 00:19:00,
2013-08-30 17:24:00,92.0,62.0,29.99,WNW,288,3.0,16.0,37,0.00,,---,0.00,VWS V14.01,2013-08-31 00:24:00,
2013-08-30 17:29:00,92.0,62.8,29.98,West,264,4.0,13.0,38,0.00,,---,0.00,VWS V14.01,2013-08-31 00:29:00,
2013-08-30 17:30:00,92.1,63.6,29.98,SSE,165,9.0,16.0,39,0.00,,---,0.00,VWS V14.01,2013-08-31 00:30:00,
2013-08-30 17:34:00,92.1,62.9,29.98,SW,235,4.0,13.0,38,0.00,,---,0.00,VWS V14.01,2013-08-31 00:34:00,
2013-08-30 17:39:00,92.4,63.1,29.99,SSW,194,7.0,13.0,38,0.00,,---,0.00,VWS V14.01,2013-08-31 00:39:00,
2013-08-30 17:44:00,91.8,61.8,29.99,West,276,3.0,13.0,37,0.00,,---,0.00,VWS V14.01,2013-08-31 00:44:00,
2013-08-30 17:49:00,91.3,59.0,29.99,SW,215,2.0,13.0,34,0.00,,---,0.00,VWS V14.01,2013-08-31 00:49:00,
2013-08-30 17:54:00,91.2,63.5,29.99,NE,47,0.0,13.0,40,0.00,,---,0.00,VWS V14.01,2013-08-31 00:54:00,
2013-08-30 17:59:00,91.1,63.4,30.00,South,183,3.0,9.0,40,0.00,,---,0.00,VWS V14.01,2013-08-31 00:59:00,
2013-08-30 18:00:00,91.1,63.4,29.99,WSW,245,5.0,13.0,40,0.00,,---,0.00,VWS V14.01,2013-08-31 01:00:00,
2013-08-30 18:04:00,91.0,63.3,30.00,WNW,294,1.0,9.0,40,0.00,,---,0.00,VWS V14.01,2013-08-31 01:04:00,
2013-08-30 18:09:00,90.8,63.2,30.00,West,280,4.0,9.0,40,0.00,,---,0.00,VWS V14.01,2013-08-31 01:09:00,
2013-08-30 18:14:00,90.0,63.2,30.00,NNW,328,0.0,9.0,41,0.00,,---,0.00,VWS V14.01,2013-08-31 01:14:00,
2013-08-30 18:19:00,89.8,63.7,30.00,WNW,288,0.0,9.0,42,0.00,,---,0.00,VWS V14.01,2013-08-31 01:19:00,
2013-08-30 18:24:00,90.0,63.2,30.00,West,276,2.0,9.0,41,0.00,,---,0.00,VWS V14.01,2013-08-31 01:24:00,
2013-08-30 18:29:00,89.6,63.5,30.00,West,281,7.0,7.0,42,0.00,,---,0.00,VWS V14.01,2013-08-31 01:29:00,
2013-08-30 18:30:00,89.7,63.6,30.00,West,269,0.0,9.0,42,0.00,,---,0.00,VWS V14.01,2013-08-31 01:30:00,
2013-08-30 18:34:00,88.8,63.4,30.00,SSW,212,7.0,12.0,43,0.00,,---,0.00,VWS V14.01,2013-08-31 01:34:00,
2013-08-30 18:39:00,88.1,63.5,30.00,SSW,212,6.0,12.0,44,0.00,,---,0.00,VWS V14.01,2013-08-31 01:39:00,
2013-08-30 18:44:00,87.6,63.0,30.00,WSW,246,1.0,12.0,44,0.00,,---,0.00,VWS V14.01,2013-08-31 01:44:00,
2013-08-30 18:49:00,87.4,62.8,30.00,SSW,200,10.0,12.0,44,0.00,,---,0.00,VWS V14.01,2013-08-31 01:49:00,
2013-08-30 18:53:00,86.9,63.0,30.00,SSW,207,4.0,12.0,45,0.00,,---,0.00,VWS V14.01,2013-08-31 01:53:00,
2013-08-30 18:58:00,86.8,62.9,30.00,West,281,3.0,7.0,45,0.00,,---,0.00,VWS V14.01,2013-08-31 01:58:00,
2013-08-30 19:00:00,86.8,62.9,30.00,North,354,1.0,12.0,45,0.00,,---,0.00,VWS V14.01,2013-08-31 02:00:00,
2013-08-30 19:03:00,86.3,63.1,30.01,SSW,212,1.0,11.0,46,0.00,,---,0.00,VWS V14.01,2013-08-31 02:03:00,
2013-08-30 19:08:00,85.7,63.2,30.01,SSW,211,3.0,11.0,47,0.00,,---,0.00,VWS V14.01,2013-08-31 02:08:00,
2013-08-30 19:13:00,85.0,63.1,30.01,West,277,1.0,11.0,48,0.00,,---,0.00,VWS V14.01,2013-08-31 02:13:00,
2013-08-30 19:18:00,84.4,62.6,30.01,SSW,197,3.0,11.0,48,0.00,,---,0.00,VWS V14.01,2013-08-31 02:18:00,
2013-08-30 19:23:00,83.9,62.7,30.01,SW,218,1.0,11.0,49,0.00,,---,0.00,VWS V14.01,2013-08-31 02:23:00,
2013-08-30 19:28:00,83.6,62.4,30.01,SSW,207,4.0,4.0,49,0.00,,---,0.00,VWS V14.01,2013-08-31 02:28:00,
2013-08-30 19:30:00,83.6,62.4,30.01,West,264,0.0,11.0,49,0.00,,---,0.00,VWS V14.01,2013-08-31 02:30:00,
2013-08-30 19:33:00,83.1,62.5,30.01,West,264,2.0,8.0,50,0.00,,---,0.00,VWS V14.01,2013-08-31 02:33:00,
2013-08-30 19:38:00,82.7,62.2,30.02,NNW,328,0.0,8.0,50,0.00,,---,0.00,VWS V14.01,2013-08-31 02:38:00,
2013-08-30 19:43:00,82.5,62.0,30.02,SW,230,4.0,8.0,50,0.00,,---,0.00,VWS V14.01,2013-08-31 02:43:00,
2013-08-30 19:48:00,82.3,61.8,30.02,SSW,208,1.0,8.0,50,0.00,,---,0.00,VWS V14.01,2013-08-31 02:48:00,
2013-08-30 19:53:00,82.1,62.2,30.02,South,188,0.0,8.0,51,0.00,,---,0.00,VWS V14.01,2013-08-31 02:53:00,
2013-08-30 19:58:00,81.7,62.4,30.02,SW,215,2.0,2.0,52,0.00,,---,0.00,VWS V14.01,2013-08-31 02:58:00,
2013-08-30 20:00:00,81.8,62.5,30.02,SSW,195,0.0,8.0,52,0.00,,---,0.00,VWS V14.01,2013-08-31 03:00:00,
2013-08-30 20:03:00,81.4,61.5,30.02,South,174,1.0,4.0,51,0.00,,---,0.00,VWS V14.01,2013-08-31 03:03:00,
2013-08-30 20:08:00,81.1,62.4,30.02,SW,217,4.0,11.0,53,0.00,,---,0.00,VWS V14.01,2013-08-31 03:08:00,
2013-08-30 20:13:00,80.7,62.0,30.03,West,267,1.0,11.0,53,0.00,,---,0.00,VWS V14.01,2013-08-31 03:13:00,
2013-08-30 20:18:00,80.4,62.2,30.03,WSW,242,2.0,11.0,54,0.00,,---,0.00,VWS V14.01,2013-08-31 03:18:00,
2013-08-30 20:23:00,80.1,62.5,30.03,South,174,3.0,11.0,55,0.00,,---,0.00,VWS V14.01,2013-08-31 03:23:00,
2013-08-30 20:28:00,79.9,61.8,30.03,WSW,242,1.0,3.0,54,0.00,,---,0.00,VWS V14.01,2013-08-31 03:28:00,
2013-08-30 20:30:00,79.9,61.8,30.03,WNW,283,2.0,11.0,54,0.00,,---,0.00,VWS V14.01,2013-08-31 03:30:00,
2013-08-30 20:33:00,79.9,61.8,30.03,SSE,152,0.0,5.0,54,0.00,,---,0.00,VWS V14.01,2013-08-31 03:33:00,
2013-08-30 20:38:00,79.8,62.2,30.03,SW,217,0.0,5.0,55,0.00,,---,0.00,VWS V14.01,2013-08-31 03:38:00,
2013-08-30 20:43:00,79.5,61.9,30.04,West,274,1.0,5.0,55,0.00,,---,0.00,VWS V14.01,2013-08-31 03:43:00,
2013-08-30 20:48:00,79.4,61.8,30.04,SW,227,1.0,5.0,55,0.00,,---,0.00,VWS V14.01,2013-08-31 03:48:00,
2013-08-30 20:53:00,79.6,62.0,30.04,WSW,252,0.0,6.0,55,0.00,,---,0.00,VWS V14.01,2013-08-31 03:53:00,
2013-08-30 20:58:00,79.6,62.0,30.05,West,266,1.0,1.0,55,0.00,,---,0.00,VWS V14.01,2013-08-31 03:58:00,
2013-08-30 21:00:00,79.7,62.1,30.04,West,276,0.0,6.0,55,0.00,,---,0.00,VWS V14.01,2013-08-31 04:00:00,
2013-08-30 21:01:00,79.6,62.0,30.05,West,264,0.0,1.0,55,0.00,,---,0.00,VWS V14.01,2013-08-31 04:01:00,
2013-08-30 21:02:00,79.6,61.5,30.05,West,264,0.0,1.0,54,0.00,,---,0.00,VWS V14.01,2013-08-31 04:02:00,
2013-08-30 21:07:00,79.3,61.8,30.05,West,264,0.0,1.0,55,0.00,,---,0.00,VWS V14.01,2013-08-31 04:07:00,
2013-08-30 21:12:00,78.8,60.8,30.05,West,264,0.0,1.0,54,0.00,,---,0.00,VWS V14.01,2013-08-31 04:12:00,
2013-08-30 21:17:00,78.5,61.5,30.05,West,269,0.0,2.0,56,0.00,,---,0.00,VWS V14.01,2013-08-31 04:17:00,
2013-08-30 21:22:00,78.2,61.2,30.05,West,280,0.0,2.0,56,0.00,,---,0.00,VWS V14.01,2013-08-31 04:22:00,
2013-08-30 21:27:00,78.0,61.0,30.05,West,270,0.0,2.0,56,0.00,,---,0.00,VWS V14.01,2013-08-31 04:27:00,
2013-08-30 21:30:00,78.0,61.0,30.05,West,269,0.0,2.0,56,0.00,,---,0.00,VWS V14.01,2013-08-31 04:30:00,
2013-08-30 21:32:00,77.9,61.5,30.05,West,280,1.0,2.0,57,0.00,,---,0.00,VWS V14.01,2013-08-31 04:32:00,
2013-08-30 21:37:00,78.0,61.5,30.05,SW,231,0.0,2.0,57,0.00,,---,0.00,VWS V14.01,2013-08-31 04:37:00,
2013-08-30 21:42:00,78.1,62.1,30.05,WSW,247,0.0,3.0,58,0.00,,---,0.00,VWS V14.01,2013-08-31 04:42:00,
2013-08-30 21:47:00,77.9,62.0,30.05,West,269,1.0,3.0,58,0.00,,---,0.00,VWS V14.01,2013-08-31 04:47:00,
2013-08-30 21:52:00,77.9,62.4,30.05,WNW,295,1.0,5.0,59,0.00,,---,0.00,VWS V14.01,2013-08-31 04:52:00,
2013-08-30 21:57:00,77.8,62.8,30.05,NW,308,3.0,6.0,60,0.00,,---,0.00,VWS V14.01,2013-08-31 04:57:00,
2013-08-30 22:00:00,77.8,62.8,30.05,NW,316,4.0,6.0,60,0.00,,---,0.00,VWS V14.01,2013-08-31 05:00:00,
2013-08-30 22:02:00,77.8,62.8,30.05,NW,313,3.0,4.0,60,0.00,,---,0.00,VWS V14.01,2013-08-31 05:02:00,
2013-08-30 22:07:00,77.9,62.9,30.05,NW,304,3.0,6.0,60,0.00,,---,0.00,VWS V14.01,2013-08-31 05:07:00,
2013-08-30 22:12:00,77.8,62.8,30.06,West,269,3.0,6.0,60,0.00,,---,0.00,VWS V14.01,2013-08-31 05:12:00,
2013-08-30 22:17:00,77.8,62.8,30.06,West,259,3.0,6.0,60,0.00,,---,0.00,VWS V14.01,2013-08-31 05:17:00,
2013-08-30 22:22:00,77.7,62.7,30.05,West,271,2.0,7.0,60,0.00,,---,0.00,VWS V14.01,2013-08-31 05:22:00,
2013-08-30 22:27:00,77.6,63.1,30.05,WSW,248,3.0,7.0,61,0.00,,---,0.00,VWS V14.01,2013-08-31 05:27:00,
2013-08-30 22:30:00,77.6,63.1,30.05,West,277,2.0,7.0,61,0.00,,---,0.00,VWS V14.01,2013-08-31 05:30:00,
2013-08-30 22:32:00,77.5,63.0,30.05,West,276,3.0,4.0,61,0.00,,---,0.00,VWS V14.01,2013-08-31 05:32:00,
2013-08-30 22:37:00,77.5,63.0,30.05,NW,311,0.0,4.0,61,0.00,,---,0.00,VWS V14.01,2013-08-31 05:37:00,
2013-08-30 22:42:00,77.5,63.0,30.05,WSW,256,1.0,4.0,61,0.00,,---,0.00,VWS V14.01,2013-08-31 05:42:00,
2013-08-30 22:47:00,77.5,63.0,30.05,WNW,283,4.0,5.0,61,0.00,,---,0.00,VWS V14.01,2013-08-31 05:47:00,
2013-08-30 22:52:00,77.5,63.0,30.05,WNW,287,2.0,6.0,61,0.00,,---,0.00,VWS V14.01,2013-08-31 05:52:00,
2013-08-30 22:57:00,77.5,63.0,30.05,WNW,296,5.0,6.0,61,0.00,,---,0.00,VWS V14.01,2013-08-31 05:57:00,
2013-08-30 23:00:00,77.5,63.0,30.05,WNW,296,2.0,6.0,61,0.00,,---,0.00,VWS V14.01,2013-08-31 06:00:00,
2013-08-30 23:02:00,77.6,63.1,30.05,WNW,285,3.0,6.0,61,0.00,,---,0.00,VWS V14.01,2013-08-31 06:02:00,
2013-08-30 23:07:00,77.8,63.3,30.05,West,262,4.0,6.0,61,0.00,,---,0.00,VWS V14.01,2013-08-31 06:07:00,
2013-08-30 23:12:00,77.9,63.4,30.05,WNW,283,3.0,7.0,61,0.00,,---,0.00,VWS V14.01,2013-08-31 06:12:00,
2013-08-30 23:17:00,78.1,63.1,30.06,WSW,248,4.0,7.0,60,0.00,,---,0.00,VWS V14.01,2013-08-31 06:17:00,
2013-08-30 23:22:00,78.1,63.1,30.06,WNW,290,4.0,7.0,60,0.00,,---,0.00,VWS V14.01,2013-08-31 06:22:00,
2013-08-30 23:27:00,78.1,63.1,30.05,WSW,255,4.0,7.0,60,0.00,,---,0.00,VWS V14.01,2013-08-31 06:27:00,
2013-08-30 23:30:00,78.1,63.1,30.05,WNW,285,8.0,8.0,60,0.00,,---,0.00,VWS V14.01,2013-08-31 06:30:00,
2013-08-30 23:32:00,78.2,63.2,30.05,WSW,248,3.0,8.0,60,0.00,,---,0.00,VWS V14.01,2013-08-31 06:32:00,
2013-08-30 23:37:00,78.2,63.2,30.05,West,281,4.0,8.0,60,0.00,,---,0.00,VWS V14.01,2013-08-31 06:37:00,
2013-08-30 23:42:00,78.2,63.2,30.05,West,278,4.0,8.0,60,0.00,,---,0.00,VWS V14.01,2013-08-31 06:42:00,
2013-08-30 23:47:00,78.2,63.2,30.05,WNW,302,5.0,10.0,60,0.00,,---,0.00,VWS V14.01,2013-08-31 06:47:00,
2013-08-30 23:52:00,77.9,63.4,30.05,NW,308,8.0,10.0,61,0.00,,---,0.00,VWS V14.01,2013-08-31 06:52:00,
2013-08-30 23:57:00,77.7,63.2,30.05,NW,308,2.0,10.0,61,0.00,,---,0.00,VWS V14.01,2013-08-31 06:57:00,